BWA1507 TTCP-TTPP

Flight info

Callsign BWA1507
Flight time 0h 22m
Altitude 6000
Route NAPKO DCT LEXOR DCT TALUS
Aircraft AT76/M-SDFGIRY/S

Departure

Time 2026-05-08 13:37
Airport A.N.R. Robinson International Airport (TTCP)

Arrival

Time 2026-05-08 13:59
Airport Piarco International Airport (TTPP)
Time Latitude Longitude Altitude Speed Heading
2026-05-08 12:55 11.15185 -60.84061 53 ft 0 kts
2026-05-08 13:32 11.15186 -60.84060 53 ft 0 kts 14°
2026-05-08 13:32 11.15188 -60.84058 53 ft 1 kts 40°
2026-05-08 13:32 11.15185 -60.84051 53 ft 1 kts 114°
2026-05-08 13:32 11.15171 -60.84055 50 ft 4 kts 206°
2026-05-08 13:33 11.15139 -60.84086 53 ft 7 kts 227°
2026-05-08 13:33 11.15123 -60.84102 53 ft 2 kts 228°
2026-05-08 13:33 11.15108 -60.84121 53 ft 5 kts 232°
2026-05-08 13:33 11.15085 -60.84150 53 ft 0 kts 230°
2026-05-08 13:34 11.15081 -60.84154 53 ft 2 kts 228°
2026-05-08 13:34 11.15063 -60.84176 54 ft 5 kts 230°
2026-05-08 13:35 11.15043 -60.84212 51 ft 8 kts 256°
2026-05-08 13:35 11.15040 -60.84277 55 ft 10 kts 263°
2026-05-08 13:35 11.15009 -60.84349 52 ft 13 kts 242°
2026-05-08 13:35 11.15020 -60.84433 48 ft 12 kts 320°
2026-05-08 13:36 11.15053 -60.84412 55 ft 6 kts 87°
2026-05-08 13:36 11.15051 -60.84364 49 ft 14 kts 94°
2026-05-08 13:36 11.15028 -60.84058 54 ft 69 kts 93°
2026-05-08 13:36 11.14983 -60.83420 57 ft 109 kts 96°
2026-05-08 13:37 11.14918 -60.82555 311 ft 120 kts 102°
2026-05-08 13:37 11.14747 -60.81715 732 ft 125 kts 105°
2026-05-08 13:37 11.14460 -60.80867 1197 ft 126 kts 122°
2026-05-08 13:37 11.13814 -60.80303 1660 ft 125 kts 161°
2026-05-08 13:38 11.12906 -60.80347 1811 ft 140 kts 206°
2026-05-08 13:38 11.12291 -60.81073 2078 ft 139 kts 264°
2026-05-08 13:38 11.12234 -60.82103 2017 ft 160 kts 262°
2026-05-08 13:38 11.11892 -60.83237 2094 ft 171 kts 252°
2026-05-08 13:39 11.11419 -60.84327 2352 ft 170 kts 242°
2026-05-08 13:39 11.10832 -60.85385 2573 ft 173 kts 239°
2026-05-08 13:39 11.10210 -60.86449 2799 ft 177 kts 239°
2026-05-08 13:39 11.09562 -60.87532 3029 ft 181 kts 238°
2026-05-08 13:40 11.08892 -60.88629 3211 ft 187 kts 237°
2026-05-08 13:40 11.08180 -60.89792 3271 ft 198 kts 237°
2026-05-08 13:40 11.07447 -60.90984 3499 ft 199 kts 237°
2026-05-08 13:40 11.06703 -60.92186 3740 ft 198 kts 238°
2026-05-08 13:41 11.05970 -60.93378 3965 ft 199 kts 237°
2026-05-08 13:41 11.05233 -60.94571 4203 ft 199 kts 238°
2026-05-08 13:41 11.04499 -60.95765 4434 ft 199 kts 238°
2026-05-08 13:41 11.03760 -60.96962 4660 ft 200 kts 238°
2026-05-08 13:42 11.03024 -60.98158 4901 ft 199 kts 238°
2026-05-08 13:42 11.02285 -60.99354 5112 ft 200 kts 238°
2026-05-08 13:42 11.01545 -61.00555 5338 ft 200 kts 238°
2026-05-08 13:42 11.00806 -61.01753 5552 ft 200 kts 238°
2026-05-08 13:43 11.00065 -61.02956 5760 ft 201 kts 238°
2026-05-08 13:43 10.99561 -61.03772 5878 ft 202 kts 238°
2026-05-08 13:43 10.98799 -61.05007 5949 ft 210 kts 238°
2026-05-08 13:43 10.98009 -61.06284 5990 ft 217 kts 238°
2026-05-08 13:44 10.97194 -61.07607 6005 ft 224 kts 238°
2026-05-08 13:44 10.96355 -61.08966 6013 ft 231 kts 238°
2026-05-08 13:44 10.95485 -61.10368 6015 ft 236 kts 238°
2026-05-08 13:44 10.94631 -61.11729 6016 ft 240 kts 237°
2026-05-08 13:45 10.93725 -61.13170 6016 ft 244 kts 238°
2026-05-08 13:45 10.92823 -61.14639 6016 ft 246 kts 238°
2026-05-08 13:45 10.91914 -61.16128 6016 ft 249 kts 238°
2026-05-08 13:45 10.91000 -61.17634 6017 ft 251 kts 238°
2026-05-08 13:46 10.90070 -61.19141 6017 ft 252 kts 238°
2026-05-08 13:46 10.89125 -61.20672 6016 ft 253 kts 238°
2026-05-08 13:46 10.88187 -61.22193 6016 ft 253 kts 238°
2026-05-08 13:46 10.87249 -61.23708 6017 ft 254 kts 238°
2026-05-08 13:47 10.86309 -61.25232 6017 ft 254 kts 238°
2026-05-08 13:47 10.85366 -61.26755 6016 ft 254 kts 237°
2026-05-08 13:47 10.84422 -61.28276 6016 ft 255 kts 238°
2026-05-08 13:47 10.83476 -61.29811 5910 ft 257 kts 238°
2026-05-08 13:48 10.82532 -61.31338 5736 ft 254 kts 237°
2026-05-08 13:48 10.81553 -61.32914 5556 ft 252 kts 238°
2026-05-08 13:48 10.80624 -61.34414 5383 ft 250 kts 237°
2026-05-08 13:48 10.79693 -61.35908 5216 ft 249 kts 237°
2026-05-08 13:49 10.78755 -61.37391 5036 ft 249 kts 237°
2026-05-08 13:49 10.77801 -61.38897 4862 ft 249 kts 237°
2026-05-08 13:49 10.76854 -61.40397 4701 ft 248 kts 237°
2026-05-08 13:49 10.75941 -61.41874 4531 ft 249 kts 238°
2026-05-08 13:50 10.74993 -61.43404 4333 ft 249 kts 237°
2026-05-08 13:50 10.74076 -61.44892 4224 ft 247 kts 237°
2026-05-08 13:50 10.73170 -61.46361 4150 ft 242 kts 237°
2026-05-08 13:50 10.72275 -61.47796 4132 ft 238 kts 238°
2026-05-08 13:51 10.71394 -61.49216 4018 ft 238 kts 238°
2026-05-08 13:51 10.70534 -61.50612 3853 ft 225 kts 237°
2026-05-08 13:51 10.69477 -61.51667 3778 ft 203 kts 202°
2026-05-08 13:51 10.68168 -61.51971 3802 ft 176 kts 179°
2026-05-08 13:52 10.66989 -61.52010 3582 ft 168 kts 181°
2026-05-08 13:52 10.65785 -61.52092 3053 ft 183 kts 174°
2026-05-08 13:52 10.64498 -61.52060 2763 ft 181 kts 177°
2026-05-08 13:52 10.63273 -61.52154 2624 ft 171 kts 180°
2026-05-08 13:53 10.62108 -61.52232 2523 ft 165 kts 178°
2026-05-08 13:53 10.61001 -61.52207 2492 ft 153 kts 163°
2026-05-08 13:53 10.60099 -61.51725 2365 ft 144 kts 133°
2026-05-08 13:53 10.59539 -61.50900 2324 ft 142 kts 109°
2026-05-08 13:54 10.59345 -61.49928 2397 ft 136 kts 93°
2026-05-08 13:54 10.59331 -61.49032 2407 ft 120 kts 86°
2026-05-08 13:54 10.59394 -61.48154 2314 ft 126 kts 86°
2026-05-08 13:54 10.59422 -61.47273 2189 ft 122 kts 88°
2026-05-08 13:55 10.59414 -61.46411 1990 ft 122 kts 89°
2026-05-08 13:55 10.59428 -61.45548 1826 ft 122 kts 88°
2026-05-08 13:55 10.59518 -61.43881 1518 ft 116 kts 88°
2026-05-08 13:56 10.59560 -61.43071 1387 ft 112 kts 90°
2026-05-08 13:56 10.59558 -61.42289 1283 ft 108 kts 94°
2026-05-08 13:56 10.59532 -61.41526 1233 ft 107 kts 94°
2026-05-08 13:56 10.59527 -61.40754 1167 ft 109 kts 90°
2026-05-08 13:57 10.59555 -61.39982 1137 ft 112 kts 90°
2026-05-08 13:57 10.59553 -61.39184 1053 ft 112 kts 94°
2026-05-08 13:57 10.59540 -61.38435 892 ft 104 kts 92°
2026-05-08 13:57 10.59523 -61.37675 690 ft 108 kts 93°
2026-05-08 13:58 10.59537 -61.36917 481 ft 107 kts 91°
2026-05-08 13:58 10.59535 -61.36406 330 ft 104 kts 91°
2026-05-08 13:58 10.59539 -61.35664 171 ft 100 kts 91°
2026-05-08 13:58 10.59539 -61.34927 57 ft 100 kts 91°
2026-05-08 13:59 10.59537 -61.34326 49 ft 50 kts 91°
2026-05-08 13:59 10.59535 -61.34036 47 ft 39 kts 89°
2026-05-08 13:59 10.59536 -61.33792 48 ft 30 kts 90°
2026-05-08 13:59 10.59542 -61.33607 47 ft 23 kts 77°
2026-05-08 14:00 10.59601 -61.33487 48 ft 16 kts 48°
2026-05-08 14:00 10.59688 -61.33454 48 ft 13 kts 330°
2026-05-08 14:00 10.59705 -61.33540 48 ft 13 kts 273°
2026-05-08 14:00 10.59708 -61.33636 48 ft 14 kts 270°
2026-05-08 14:01 10.59731 -61.33726 48 ft 13 kts 331°
2026-05-08 14:01 10.59816 -61.33734 48 ft 10 kts 358°
2026-05-08 14:01 10.59844 -61.33735 48 ft 5 kts
2026-05-08 14:01 10.59884 -61.33734 48 ft 7 kts 359°
2026-05-08 14:02 10.59938 -61.33734 48 ft 8 kts
2026-05-08 14:02 10.60001 -61.33735 48 ft 9 kts
2026-05-08 14:02 10.60066 -61.33742 48 ft 10 kts 331°
2026-05-08 14:02 10.60107 -61.33801 48 ft 11 kts 291°
2026-05-08 14:03 10.60129 -61.33865 48 ft 1 kts 300°
2026-05-08 14:03 10.60133 -61.33864 48 ft 0 kts 353°
2026-05-08 14:03 10.60134 -61.33857 48 ft 1 kts 69°
2026-05-08 14:03 10.60134 -61.33853 48 ft 2 kts 90°
2026-05-08 14:04 10.60132 -61.33847 48 ft 0 kts 114°
2026-05-08 14:09 10.60132 -61.33848 48 ft 0 kts 114°